Location: ???????
(55.3754°N, 39.3545°E)
Time: 06:52:20
(UTC+00:00)

Cosmos 332 Rocket - Pass Details

Date: 14 April 2026
Orbit: 672 x 692 km, 74.0° (Epoch: 12 May)

Event Time Altitude Azimuth Distance (km) Brightness Sun altitude
Rises 21:04:37 0° 333° (NNW) 3,077 8.2 -24.9°
Reaches altitude 10° 21:06:59 10° 337° (NNW) 2,154 7.3 -24.9°
Maximum altitude 21:11:47 58° 57° (ENE) 804 4.1 -24.9°
Enters shadow 21:12:27 53° 92° (E) 850 4.1 -24.9°
